datetime,total release
1968-10-02,166.37
1968-10-03,166.37
1968-10-04,166.37
1968-10-05,166.37
1968-10-06,166.37
1968-10-07,166.37
1968-10-08,166.37
1968-10-09,166.37
1968-10-10,166.37
1968-10-11,166.37
1968-10-12,166.37
1968-10-13,166.37
1968-10-14,166.37
1968-10-15,166.37
1968-10-16,166.37
1968-10-17,166.37
1968-10-18,166.37
1968-10-19,166.37
1968-10-20,161.33
1968-10-21,161.33
1968-10-22,161.33
1968-10-23,161.33
1968-10-24,161.33
1968-10-25,161.33
1968-10-26,161.33
1968-10-27,161.33
1968-10-28,148.22
1968-10-29,131.08
1968-10-30,161.33
1968-10-31,161.33
1968-11-01,161.33
1968-11-02,161.33
1968-11-03,161.33
1968-11-04,161.33
1968-11-05,161.33
1968-11-06,159.31
1968-11-07,159.31
1968-11-08,159.31
1968-11-09,159.31
1968-11-10,159.31
1968-11-11,159.31
1968-11-12,159.31
1968-11-13,159.31
1968-11-14,159.31
1968-11-15,159.31
1968-11-16,159.31
1968-11-17,159.31
1968-11-18,159.31
1968-11-19,159.31
1968-11-20,159.31
1968-11-21,159.31
1968-11-22,159.31
1968-11-23,159.31
1968-11-24,159.31
1968-11-25,159.31
1968-11-26,159.31
1968-11-27,159.31
1968-11-28,159.31
1968-11-29,159.31
1968-11-30,159.31
1968-12-01,159.31
1968-12-02,159.31
1968-12-03,159.31
1968-12-04,159.31
1968-12-05,159.31
1968-12-06,159.31
1968-12-07,159.31
1968-12-08,159.31
1968-12-09,159.31
1968-12-10,159.31
1968-12-11,159.31
1968-12-12,159.31
1968-12-13,159.31
1968-12-14,159.31
1968-12-15,159.31
1968-12-16,159.31
1968-12-17,159.31
1968-12-18,159.31
1968-12-19,159.31
1968-12-20,159.31
1968-12-21,159.31
1968-12-22,159.31
1968-12-23,159.31
1968-12-24,159.31
1968-12-25,159.31
1968-12-26,159.31
1968-12-27,159.31
1968-12-28,159.31
1968-12-29,159.31
1968-12-30,159.31
1968-12-31,159.31
1969-01-01,159.31
1969-01-02,159.31
1969-01-03,159.31
1969-01-04,159.31
1969-01-05,159.31
1969-01-06,159.31
1969-01-07,159.31
1969-01-08,159.31
1969-01-09,159.31
1969-01-10,159.31
1969-01-11,159.31
1969-01-12,159.31
1969-01-13,159.31
1969-01-14,159.31
1969-01-15,159.31
1969-01-16,159.31
1969-01-17,159.31
1969-01-18,159.31
1969-01-19,159.31
1969-01-20,159.31
1969-01-21,159.31
1969-01-22,159.31
1969-01-23,159.31
1969-01-24,159.31
1969-01-25,159.31
1969-01-26,159.31
1969-01-27,159.31
1969-01-28,159.31
1969-01-29,159.31
1969-01-30,159.31
1969-01-31,159.31
1969-02-01,159.31
1969-02-02,159.31
1969-02-03,159.31
1969-02-04,159.31
1969-02-05,159.31
1969-02-06,159.31
1969-02-07,159.31
1969-02-08,159.31
1969-02-09,159.31
1969-02-10,159.31
1969-02-11,159.31
1969-02-12,159.31
1969-02-13,159.31
1969-02-14,159.31
1969-02-15,159.31
1969-02-16,159.31
1969-02-17,159.31
1969-02-18,159.31
1969-02-19,159.31
1969-02-20,164.36
1969-02-21,164.36
1969-02-22,164.36
1969-02-23,164.36
1969-02-24,164.36
1969-02-25,164.86
1969-02-26,305.52
1969-02-27,307.54
1969-02-28,307.54
1969-03-01,307.54
1969-03-02,307.54
1969-03-03,307.54
1969-03-04,307.54
1969-03-05,307.54
1969-03-06,307.54
1969-03-07,307.54
1969-03-08,508.19
1969-03-09,508.19
1969-03-10,508.19
1969-03-11,508.19
1969-03-12,508.19
1969-03-13,508.19
1969-03-14,508.19
1969-03-15,508.19
1969-03-16,508.19
1969-03-17,508.19
1969-03-18,508.19
1969-03-19,508.19
1969-03-20,508.19
1969-03-21,508.19
1969-03-22,508.19
1969-03-23,508.19
1969-03-24,508.19
1969-03-25,508.19
1969-03-26,508.19
1969-03-27,508.19
1969-03-28,508.19
1969-03-29,508.19
1969-03-30,508.19
1969-03-31,508.19
1969-04-01,508.19
1969-04-02,508.19
1969-04-03,508.19
1969-04-04,154.27
1969-04-05,154.27
1969-04-06,154.27
1969-04-07,154.27
1969-04-08,154.27
1969-04-09,154.27
1969-04-10,154.27
1969-04-11,154.27
1969-04-12,159.31
1969-04-13,159.31
1969-04-14,159.31
1969-04-15,159.31
1969-04-16,159.31
1969-04-17,159.31
1969-04-18,159.31
1969-04-19,159.31
1969-04-20,480.97
1969-04-21,463.83
1969-04-22,667.51
1969-04-23,810.69
1969-04-24,810.69
1969-04-25,810.69
1969-04-26,609.02
1969-04-27,609.02
1969-04-28,609.02
1969-04-29,609.02
1969-04-30,609.02
1969-05-01,505.17
1969-05-02,505.17
1969-05-03,907.49
1969-05-04,907.49
1969-05-05,907.49
1969-05-06,907.49
1969-05-07,1008.32
1969-05-08,974.04
1969-05-09,931.69
1969-05-10,1066.8
1969-05-11,1074.87
1969-05-12,1077.89
1969-05-13,1194.86
1969-05-14,1194.86
1969-05-15,1194.86
1969-05-16,1088.98
1969-05-17,1088.98
1969-05-18,1097.05
1969-05-19,731.03
1969-05-20,563.65
1969-05-21,658.43
1969-05-22,658.43
1969-05-23,788.51
1969-05-24,788.51
1969-05-25,788.51
1969-05-26,788.51
1969-05-27,788.51
1969-05-28,788.51
1969-05-29,788.51
1969-05-30,788.51
1969-05-31,788.51
1969-06-01,788.51
1969-06-02,282.33
1969-06-03,285.35
1969-06-04,284.35
1969-06-05,283.34
1969-06-06,283.34
1969-06-07,276.28
1969-06-08,283.34
1969-06-09,283.34
1969-06-10,280.31
1969-06-11,280.31
1969-06-12,280.31
1969-06-13,280.31
1969-06-14,280.31
1969-06-15,280.31
1969-06-16,280.31
1969-06-17,320.65
1969-06-18,170.41
1969-06-19,170.41
1969-06-20,166.37
1969-06-21,166.37
1969-06-22,201.66
1969-06-23,478.95
1969-06-24,568.69
1969-06-25,497.1
1969-06-26,445.68
1969-06-27,445.68
1969-06-28,445.68
1969-06-29,445.68
1969-06-30,445.68
1969-07-01,396.27
1969-07-02,396.27
1969-07-03,355.94
1969-07-04,355.94
1969-07-05,312.58
1969-07-06,247.04
1969-07-07,342.83
1969-07-08,403.33
1969-07-09,512.23
1969-07-10,512.23
1969-07-11,575.75
1969-07-12,575.75
1969-07-13,575.75
1969-07-14,572.72
1969-07-15,572.72
1969-07-16,624.15
1969-07-17,874.21
1969-07-18,874.21
1969-07-19,874.21
1969-07-20,864.13
1969-07-21,864.13
1969-07-22,592.89
1969-07-23,176.46
1969-07-24,181.5
1969-07-25,176.46
1969-07-26,176.46
1969-07-27,176.46
1969-07-28,176.46
1969-07-29,179.48
1969-07-30,166.37
1969-07-31,170.41
1969-08-01,169.4
1969-08-02,169.4
1969-08-03,169.4
1969-08-04,169.4
1969-08-05,169.4
1969-08-06,169.4
1969-08-07,166.37
1969-08-08,169.4
1969-08-09,169.4
1969-08-10,169.4
1969-08-11,169.4
1969-08-12,169.4
1969-08-13,169.4
1969-08-14,169.4
1969-08-15,169.4
1969-08-16,169.4
1969-08-17,169.4
1969-08-18,169.4
1969-08-19,163.35
1969-08-20,166.37
1969-08-21,169.4
1969-08-22,169.4
1969-08-23,169.4
1969-08-24,169.4
1969-08-25,169.4
1969-08-26,169.4
1969-08-27,131.08
1969-08-28,137.13
1969-08-29,143.18
1969-08-30,167.38
1969-08-31,167.38
1969-09-01,169.4
1969-09-02,169.4
1969-09-03,163.35
1969-09-04,163.35
1969-09-05,161.84
1969-09-06,161.84
1969-09-07,161.84
1969-09-08,161.84
1969-09-09,159.82
1969-09-10,159.82
1969-09-11,159.82
1969-09-12,161.84
1969-09-13,161.84
1969-09-14,161.84
1969-09-15,161.84
1969-09-16,159.82
1969-09-17,161.84
1969-09-18,161.84
1969-09-19,161.84
1969-09-20,161.84
1969-09-21,161.84
1969-09-22,159.82
1969-09-23,161.84
1969-09-24,161.84
1969-09-25,161.84
1969-09-26,161.84
1969-09-27,161.84
1969-09-28,161.84
1969-09-29,161.84
1969-09-30,161.84
1969-10-01,161.84
1969-10-02,161.84
1969-10-03,161.84
1969-10-04,161.84
1969-10-05,161.84
1969-10-06,161.84
1969-10-07,161.84
1969-10-08,161.84
1969-10-09,161.84
1969-10-10,161.84
1969-10-11,161.84
1969-10-12,161.84
1969-10-13,161.84
1969-10-14,161.84
1969-10-15,161.84
1969-10-16,154.78
1969-10-17,153.77
1969-10-18,161.84
1969-10-19,161.84
1969-10-20,159.31
1969-10-21,159.31
1969-10-22,159.31
1969-10-23,159.31
1969-10-24,159.31
1969-10-25,159.31
1969-10-26,159.31
1969-10-27,159.31
1969-10-28,159.31
1969-10-29,159.31
1969-10-30,159.31
1969-10-31,159.31
1969-11-01,159.31
1969-11-02,159.31
1969-11-03,159.31
1969-11-04,159.31
1969-11-05,159.31
1969-11-06,159.31
1969-11-07,159.31
1969-11-08,159.31
1969-11-09,159.31
1969-11-10,159.31
1969-11-11,159.31
1969-11-12,159.31
1969-11-13,159.31
1969-11-14,159.31
1969-11-15,159.31
1969-11-16,159.31
1969-11-17,159.31
1969-11-18,159.31
1969-11-19,159.31
1969-11-20,159.31
1969-11-21,159.31
1969-11-22,159.31
1969-11-23,159.31
1969-11-24,159.31
1969-11-25,159.31
1969-11-26,159.31
1969-11-27,159.31
1969-11-28,159.31
1969-11-29,159.31
1969-11-30,159.31
1969-12-01,159.31
1969-12-02,156.29
1969-12-03,156.29
1969-12-04,159.31
1969-12-05,158.31
1969-12-06,158.31
1969-12-07,158.31
1969-12-08,158.31
1969-12-09,158.31
1969-12-10,158.31
1969-12-11,158.31
1969-12-12,158.31
1969-12-13,158.31
1969-12-14,158.31
1969-12-15,158.31
1969-12-16,158.31
1969-12-17,158.31
1969-12-18,158.31
1969-12-19,158.31
1969-12-20,158.31
1969-12-21,158.31
1969-12-22,158.31
1969-12-23,158.31
1969-12-24,158.31
1969-12-25,158.31
1969-12-26,158.31
1969-12-27,158.31
1969-12-28,158.31
1969-12-29,158.31
1969-12-30,151.25
1969-12-31,158.31
1970-01-01,158.31
1970-01-02,158.31
1970-01-03,158.31
1970-01-04,158.31
1970-01-05,158.31
1970-01-06,163.35
1970-01-07,163.35
1970-01-08,163.35
1970-01-09,163.35
1970-01-10,163.35
1970-01-11,163.35
1970-01-12,160.32
1970-01-13,147.21
1970-01-14,158.31
1970-01-15,158.31
1970-01-16,158.31
1970-01-17,158.31
1970-01-18,158.31
1970-01-19,158.31
1970-01-20,158.31
1970-01-21,158.31
1970-01-22,158.31
1970-01-23,158.31
1970-01-24,158.31
1970-01-25,158.31
1970-01-26,158.31
1970-01-27,158.31
1970-01-28,158.31
1970-01-29,158.31
1970-01-30,158.31
1970-01-31,158.31
1970-02-01,158.31
1970-02-02,158.31
1970-02-03,158.31
1970-02-04,158.31
1970-02-05,158.31
1970-02-06,158.31
1970-02-07,158.31
1970-02-08,158.31
1970-02-09,158.31
1970-02-10,168.39
1970-02-11,168.39
1970-02-12,168.39
1970-02-13,168.39
1970-02-14,168.39
1970-02-15,168.39
1970-02-16,168.39
1970-02-17,168.39
1970-02-18,163.35
1970-02-19,163.35
1970-02-20,163.35
1970-02-21,163.35
1970-02-22,163.35
1970-02-23,163.35
1970-02-24,163.35
1970-02-25,163.35
1970-02-26,163.35
1970-02-27,163.35
1970-02-28,163.35
1970-03-01,163.35
1970-03-02,163.35
1970-03-03,163.35
1970-03-04,161.33
1970-03-05,161.33
1970-03-06,161.33
1970-03-07,161.33
1970-03-08,161.33
1970-03-09,161.33
1970-03-10,161.33
1970-03-11,161.33
1970-03-12,91.76
1970-03-13,21.17
1970-03-14,21.17
1970-03-15,21.17
1970-03-16,21.17
1970-03-17,21.17
1970-03-18,21.17
1970-03-19,21.17
1970-03-20,21.17
1970-03-21,21.17
1970-03-22,21.17
1970-03-23,21.17
1970-03-24,21.17
1970-03-25,21.17
1970-03-26,21.17
1970-03-27,22.69
1970-03-28,22.69
1970-03-29,22.69
1970-03-30,22.69
1970-03-31,22.69
1970-04-01,22.69
1970-04-02,22.69
1970-04-03,22.69
1970-04-04,22.69
1970-04-05,22.69
1970-04-06,22.69
1970-04-07,22.69
1970-04-08,22.69
1970-04-09,22.69
1970-04-10,22.69
1970-04-11,22.69
1970-04-12,22.69
1970-04-13,22.69
1970-04-14,22.69
1970-04-15,22.69
1970-04-16,22.69
1970-04-17,22.69
1970-04-18,22.69
1970-04-19,22.69
1970-04-20,22.69
1970-04-21,22.69
1970-04-22,22.69
1970-04-23,22.69
1970-04-24,22.69
1970-04-25,22.69
1970-04-26,22.69
1970-04-27,21.17
1970-04-28,21.17
1970-04-29,21.17
1970-04-30,21.17
1970-05-01,21.17
1970-05-02,21.17
1970-05-03,21.17
1970-05-04,21.17
1970-05-05,22.69
1970-05-06,23.7
1970-05-07,23.7
1970-05-08,23.7
1970-05-09,23.7
1970-05-10,23.7
1970-05-11,23.7
1970-05-12,26.72
1970-05-13,29.24
1970-05-14,29.24
1970-05-15,29.24
1970-05-16,46.38
1970-05-17,46.38
1970-05-18,47.39
1970-05-19,108.9
1970-05-20,127.55
1970-05-21,126.54
1970-05-22,125.54
1970-05-23,128.06
1970-05-24,128.06
1970-05-25,127.05
1970-05-26,132.09
1970-05-27,132.09
1970-05-28,132.09
1970-05-29,132.09
1970-05-30,132.09
1970-05-31,132.09
1970-06-01,132.09
1970-06-02,132.09
1970-06-03,154.27
1970-06-04,154.27
1970-06-05,158.31
1970-06-06,158.31
1970-06-07,158.31
1970-06-08,162.34
1970-06-09,162.34
1970-06-10,162.34
1970-06-11,171.41
1970-06-12,171.41
1970-06-13,171.41
1970-06-14,171.41
1970-06-15,171.41
1970-06-16,617.09
1970-06-17,636.25
1970-06-18,714.9
1970-06-19,714.9
1970-06-20,735.06
1970-06-21,796.57
1970-06-22,806.65
1970-06-23,755.23
1970-06-24,775.4
1970-06-25,620.12
1970-06-26,545.5
1970-06-27,492.06
1970-06-28,427.53
1970-06-29,426.52
1970-06-30,636.25
1970-07-01,402.32
1970-07-02,429.54
1970-07-03,403.33
1970-07-04,307.54
1970-07-05,496.6
1970-07-06,263.17
1970-07-07,270.23
1970-07-08,273.25
1970-07-09,258.13
1970-07-10,254.1
1970-07-11,265.19
1970-07-12,265.19
1970-07-13,133.1
1970-07-14,283.34
1970-07-15,286.87
1970-07-16,289.39
1970-07-17,289.39
1970-07-18,289.39
1970-07-19,289.39
1970-07-20,289.39
1970-07-21,314.6
1970-07-22,286.87
1970-07-23,286.87
1970-07-24,287.87
1970-07-25,290.9
1970-07-26,290.9
1970-07-27,278.8
1970-07-28,278.8
1970-07-29,295.94
1970-07-30,286.36
1970-07-31,286.36
1970-08-01,286.87
1970-08-02,290.4
1970-08-03,288.88
1970-08-04,288.88
1970-08-05,287.87
1970-08-06,287.87
1970-08-07,242.5
1970-08-08,287.87
1970-08-09,287.87
1970-08-10,287.87
1970-08-11,285.86
1970-08-12,285.86
1970-08-13,285.86
1970-08-14,287.87
1970-08-15,236.45
1970-08-16,235.44
1970-08-17,234.94
1970-08-18,234.94
1970-08-19,197.63
1970-08-20,198.13
1970-08-21,197.63
1970-08-22,197.63
1970-08-23,197.63
1970-08-24,198.13
1970-08-25,165.36
1970-08-26,195.61
1970-08-27,195.61
1970-08-28,162.84
1970-08-29,164.36
1970-08-30,164.36
1970-08-31,164.36
1970-09-01,162.34
1970-09-02,162.34
1970-09-03,162.34
1970-09-04,162.34
1970-09-05,162.34
1970-09-06,162.34
1970-09-07,162.34
1970-09-08,162.34
1970-09-09,162.34
1970-09-10,162.34
1970-09-11,162.34
1970-09-12,162.34
1970-09-13,162.34
1970-09-14,162.34
1970-09-15,162.34
1970-09-16,162.34
1970-09-17,162.34
1970-09-18,162.34
1970-09-19,162.34
1970-09-20,162.34
1970-09-21,162.34
1970-09-22,162.34
1970-09-23,162.34
1970-09-24,162.34
1970-09-25,162.34
1970-09-26,162.34
1970-09-27,162.34
1970-09-28,162.34
1970-09-29,162.34
1970-09-30,162.34
1970-10-01,162.34
1970-10-02,162.34
1970-10-03,162.34
1970-10-04,162.34
1970-10-05,162.34
1970-10-06,162.34
1970-10-07,162.34
1970-10-08,162.34
1970-10-09,162.34
1970-10-10,162.34
1970-10-11,162.34
1970-10-12,162.34
1970-10-13,162.34
1970-10-14,162.34
1970-10-15,162.34
1970-10-16,162.34
1970-10-17,162.34
1970-10-18,162.34
1970-10-19,162.34
1970-10-20,162.34
1970-10-21,162.34
1970-10-22,162.34
1970-10-23,162.34
1970-10-24,162.34
1970-10-25,162.34
1970-10-26,162.34
1970-10-27,162.34
1970-10-28,159.82
1970-10-29,159.82
1970-10-30,159.82
1970-10-31,159.82
1970-11-01,159.82
1970-11-02,159.82
1970-11-03,159.82
1970-11-04,159.82
1970-11-05,159.82
1970-11-06,159.82
1970-11-07,159.82
1970-11-08,159.82
1970-11-09,157.8
1970-11-10,157.8
1970-11-11,157.8
1970-11-12,157.8
1970-11-13,157.8
1970-11-14,159.82
1970-11-15,159.82
1970-11-16,159.82
1970-11-17,159.82
1970-11-18,159.82
1970-11-19,159.82
1970-11-20,159.82
1970-11-21,159.82
1970-11-22,159.82
1970-11-23,159.82
1970-11-24,159.82
1970-11-25,159.82
1970-11-26,159.82
1970-11-27,159.82
1970-11-28,159.82
1970-11-29,159.82
1970-11-30,159.82
1970-12-01,159.82
1970-12-02,159.82
1970-12-03,145.7
1970-12-04,159.82
1970-12-05,159.82
1970-12-06,159.82
1970-12-07,159.82
1970-12-08,159.82
1970-12-09,159.82
1970-12-10,159.82
1970-12-11,159.82
1970-12-12,159.82
1970-12-13,159.82
1970-12-14,159.82
1970-12-15,159.82
1970-12-16,159.82
1970-12-17,159.82
1970-12-18,159.82
1970-12-19,159.82
1970-12-20,159.82
1970-12-21,159.82
1970-12-22,159.82
1970-12-23,159.82
1970-12-24,159.82
1970-12-25,159.82
1970-12-26,159.82
1970-12-27,159.82
1970-12-28,159.82
1970-12-29,159.82
1970-12-30,159.82
1970-12-31,159.82
1971-01-01,159.82
1971-01-02,159.82
1971-01-03,159.82
1971-01-04,159.82
1971-01-05,159.82
1971-01-06,159.82
1971-01-07,159.82
1971-01-08,159.82
1971-01-09,159.82
1971-01-10,159.82
1971-01-11,159.82
1971-01-12,159.82
1971-01-13,159.82
1971-01-14,159.82
1971-01-15,159.82
1971-01-16,159.82
1971-01-17,159.82
1971-01-18,159.82
1971-01-19,159.82
1971-01-20,159.82
1971-01-21,159.82
1971-01-22,159.82
1971-01-23,159.82
1971-01-24,159.82
1971-01-25,159.82
1971-01-26,159.82
1971-01-27,159.82
1971-01-28,159.82
1971-01-29,159.82
1971-01-30,159.82
1971-01-31,159.82
1971-02-01,159.82
1971-02-02,159.82
1971-02-03,159.82
1971-02-04,159.82
1971-02-05,159.82
1971-02-06,159.82
1971-02-07,159.82
1971-02-08,159.82
1971-02-09,159.82
1971-02-10,159.82
1971-02-11,159.82
1971-02-12,159.82
1971-02-13,159.82
1971-02-14,159.82
1971-02-15,159.82
1971-02-16,159.82
1971-02-17,159.82
1971-02-18,159.82
1971-02-19,159.82
1971-02-20,159.82
1971-02-21,159.82
1971-02-22,159.82
1971-02-23,159.82
1971-02-24,159.82
1971-02-25,159.82
1971-02-26,159.82
1971-02-27,159.82
1971-02-28,159.82
1971-03-01,159.82
1971-03-02,159.82
1971-03-03,159.82
1971-03-04,159.82
1971-03-05,159.82
1971-03-06,159.82
1971-03-07,159.82
1971-03-08,159.82
1971-03-09,159.82
1971-03-10,159.82
1971-03-11,159.82
1971-03-12,159.82
1971-03-13,159.82
1971-03-14,159.82
1971-03-15,159.82
1971-03-16,159.82
1971-03-17,159.82
1971-03-18,159.82
1971-03-19,159.82
1971-03-20,159.82
1971-03-21,159.82
1971-03-22,159.82
1971-03-23,159.82
1971-03-24,159.82
1971-03-25,159.82
1971-03-26,159.82
1971-03-27,159.82
1971-03-28,159.82
1971-03-29,159.82
1971-03-30,159.82
1971-03-31,159.82
1971-04-01,159.82
1971-04-02,159.82
1971-04-03,159.82
1971-04-04,159.82
1971-04-05,159.82
1971-04-06,159.82
1971-04-07,159.82
1971-04-08,159.82
1971-04-09,159.82
1971-04-10,158.31
1971-04-11,158.31
1971-04-12,158.31
1971-04-13,158.31
1971-04-14,158.31
1971-04-15,158.31
1971-04-16,158.31
1971-04-17,158.31
1971-04-18,158.31
1971-04-19,158.31
1971-04-20,158.31
1971-04-21,158.31
1971-04-22,158.31
1971-04-23,158.31
1971-04-24,158.31
1971-04-25,158.31
1971-04-26,158.31
1971-04-27,158.31
1971-04-28,158.31
1971-04-29,158.31
1971-04-30,158.31
1971-05-01,158.31
1971-05-02,158.31
1971-05-03,158.31
1971-05-04,158.31
1971-05-05,158.31
1971-05-06,158.31
1971-05-07,158.31
1971-05-08,158.31
1971-05-09,158.31
1971-05-10,158.31
1971-05-11,158.31
1971-05-12,158.31
1971-05-13,167.89
1971-05-14,167.89
1971-05-15,167.89
1971-05-16,171.92
1971-05-17,171.92
1971-05-18,171.92
1971-05-19,171.92
1971-05-20,171.92
1971-05-21,172.93
1971-05-22,173.93
1971-05-23,173.93
1971-05-24,173.93
1971-05-25,174.44
1971-05-26,177.46
1971-05-27,177.46
1971-05-28,177.46
1971-05-29,177.46
1971-05-30,174.44
1971-05-31,174.44
1971-06-01,174.44
1971-06-02,174.44
1971-06-03,172.42
1971-06-04,172.42
1971-06-05,175.45
1971-06-06,175.45
1971-06-07,172.42
1971-06-08,172.42
1971-06-09,172.42
1971-06-10,173.93
1971-06-11,173.43
1971-06-12,173.93
1971-06-13,173.43
1971-06-14,176.96
1971-06-15,571.72
1971-06-16,1003.28
1971-06-17,1120.24
1971-06-18,1181.25
1971-06-19,1029.49
1971-06-20,1210.99
1971-06-21,1228.64
1971-06-22,1335.01
1971-06-23,1376.35
1971-06-24,1340.56
1971-06-25,1195.87
1971-06-26,1077.39
1971-06-27,1051.68
1971-06-28,825.31
1971-06-29,750.19
1971-06-30,642.3
1971-07-01,504.66
1971-07-02,396.27
1971-07-03,373.58
1971-07-04,358.96
1971-07-05,381.65
1971-07-06,384.17
1971-07-07,384.67
1971-07-08,335.77
1971-07-09,336.27
1971-07-10,335.77
1971-07-11,336.27
1971-07-12,335.77
1971-07-13,344.34
1971-07-14,358.96
1971-07-15,359.47
1971-07-16,341.82
1971-07-17,361.99
1971-07-18,326.7
1971-07-19,339.8
1971-07-20,339.8
1971-07-21,339.8
1971-07-22,339.3
1971-07-23,339.8
1971-07-24,339.3
1971-07-25,339.8
1971-07-26,268.72
1971-07-27,271.24
1971-07-28,271.24
1971-07-29,271.24
1971-07-30,242.0
1971-07-31,267.71
1971-08-01,267.71
1971-08-02,267.71
1971-08-03,267.71
1971-08-04,267.71
1971-08-05,267.71
1971-08-06,267.71
1971-08-07,164.86
1971-08-08,168.39
1971-08-09,168.39
1971-08-10,168.39
1971-08-11,168.39
1971-08-12,168.39
1971-08-13,168.39
1971-08-14,168.39
1971-08-15,168.39
1971-08-16,168.39
1971-08-17,168.39
1971-08-18,168.39
1971-08-19,168.39
1971-08-20,168.39
1971-08-21,168.39
1971-08-22,164.86
1971-08-23,164.86
1971-08-24,164.86
1971-08-25,164.86
1971-08-26,164.86
1971-08-27,164.86
1971-08-28,164.86
1971-08-29,162.34
1971-08-30,162.34
1971-08-31,162.34
1971-09-01,162.34
1971-09-02,162.34
1971-09-03,162.34
1971-09-04,165.87
1971-09-05,165.87
1971-09-06,165.87
1971-09-07,165.87
1971-09-08,165.87
1971-09-09,165.87
1971-09-10,162.34
1971-09-11,162.34
1971-09-12,162.34
1971-09-13,162.34
1971-09-14,162.34
1971-09-15,162.34
1971-09-16,162.34
1971-09-17,162.34
1971-09-18,162.34
1971-09-19,162.34
1971-09-20,162.34
1971-09-21,162.34
1971-09-22,162.34
1971-09-23,162.34
1971-09-24,162.34
1971-09-25,162.34
1971-09-26,162.34
1971-09-27,162.34
1971-09-28,162.34
1971-09-29,162.34
1971-09-30,162.34
1971-10-01,162.34
1971-10-02,162.34
1971-10-03,162.34
1971-10-04,162.34
1971-10-05,162.34
1971-10-06,162.34
1971-10-07,162.34
1971-10-08,162.34
1971-10-09,162.34
1971-10-10,162.34
1971-10-11,162.34
1971-10-12,162.34
1971-10-13,162.34
1971-10-14,162.34
1971-10-15,162.34
1971-10-16,162.34
1971-10-17,160.32
1971-10-18,157.8
1971-10-19,157.8
1971-10-20,157.8
1971-10-21,157.8
1971-10-22,157.8
1971-10-23,157.8
1971-10-24,157.8
1971-10-25,157.8
1971-10-26,157.8
1971-10-27,157.8
1971-10-28,157.8
1971-10-29,157.8
1971-10-30,157.8
1971-10-31,157.8
1971-11-01,157.8
1971-11-02,157.8
1971-11-03,157.8
1971-11-04,157.8
1971-11-05,157.8
1971-11-06,157.8
1971-11-07,157.8
1971-11-08,157.8
1971-11-09,157.8
1971-11-10,157.8
1971-11-11,157.8
1971-11-12,157.8
1971-11-13,157.8
1971-11-14,157.8
1971-11-15,157.8
1971-11-16,157.8
1971-11-17,157.8
1971-11-18,157.8
1971-11-19,157.8
1971-11-20,157.8
1971-11-21,157.8
1971-11-22,157.8
1971-11-23,157.8
1971-11-24,157.8
1971-11-25,157.8
1971-11-26,157.8
1971-11-27,157.8
1971-11-28,157.8
1971-11-29,157.8
1971-11-30,157.8
1971-12-01,157.8
1971-12-02,157.8
1971-12-03,157.8
1971-12-04,157.8
1971-12-05,157.8
1971-12-06,157.8
1971-12-07,157.8
1971-12-08,157.8
1971-12-09,157.8
1971-12-10,157.8
1971-12-11,157.8
1971-12-12,157.8
1971-12-13,157.8
1971-12-14,157.8
1971-12-15,157.8
1971-12-16,157.8
1971-12-17,157.8
1971-12-18,157.8
1971-12-19,157.8
1971-12-20,157.8
1971-12-21,157.8
1971-12-22,157.8
1971-12-23,157.8
1971-12-24,157.8
1971-12-25,157.8
1971-12-26,157.8
1971-12-27,157.8
1971-12-28,157.8
1971-12-29,157.8
1971-12-30,157.8
1971-12-31,157.8
1972-01-01,157.8
1972-01-02,157.8
1972-01-03,157.8
1972-01-04,157.8
1972-01-05,157.8
1972-01-06,157.8
1972-01-07,157.8
1972-01-08,157.8
1972-01-09,157.8
1972-01-10,157.8
1972-01-11,157.8
1972-01-12,157.8
1972-01-13,157.8
1972-01-14,157.8
1972-01-15,157.8
1972-01-16,157.8
1972-01-17,157.8
1972-01-18,157.8
1972-01-19,157.8
1972-01-20,157.8
1972-01-21,157.8
1972-01-22,157.8
1972-01-23,157.8
1972-01-24,157.8
1972-01-25,157.8
1972-01-26,157.8
1972-01-27,157.8
1972-01-28,157.8
1972-01-29,157.8
1972-01-30,157.8
1972-01-31,157.8
1972-02-01,157.8
1972-02-02,157.8
1972-02-03,157.8
1972-02-04,157.8
1972-02-05,157.8
1972-02-06,157.8
1972-02-07,157.8
1972-02-08,157.8
1972-02-09,157.8
1972-02-10,157.8
1972-02-11,157.8
1972-02-12,157.8
1972-02-13,157.8
1972-02-14,157.8
1972-02-15,157.8
1972-02-16,157.8
1972-02-17,157.8
1972-02-18,157.8
1972-02-19,157.8
1972-02-20,157.8
1972-02-21,157.8
1972-02-22,157.8
1972-02-23,157.8
1972-02-24,157.8
1972-02-25,157.8
1972-02-26,157.8
1972-02-27,157.8
1972-02-28,157.8
1972-02-29,157.8
1972-03-01,157.8
1972-03-02,157.8
1972-03-03,157.8
1972-03-04,157.8
1972-03-05,157.8
1972-03-06,157.8
1972-03-07,157.8
1972-03-08,157.8
1972-03-09,157.8
1972-03-10,157.8
1972-03-11,157.8
1972-03-12,157.8
1972-03-13,157.8
1972-03-14,157.8
1972-03-15,157.8
1972-03-16,157.8
1972-03-17,157.8
1972-03-18,157.8
1972-03-19,157.8
1972-03-20,157.8
1972-03-21,157.8
1972-03-22,157.8
1972-03-23,157.8
1972-03-24,157.8
1972-03-25,156.29
1972-03-26,156.29
1972-03-27,156.29
1972-03-28,156.29
1972-03-29,156.29
1972-03-30,156.29
1972-03-31,156.29
1972-04-01,156.29
1972-04-02,156.29
1972-04-03,156.29
1972-04-04,156.29
1972-04-05,156.29
1972-04-06,156.29
1972-04-07,156.29
1972-04-08,156.29
1972-04-09,156.29
1972-04-10,156.29
1972-04-11,156.29
1972-04-12,156.29
1972-04-13,156.29
1972-04-14,156.29
1972-04-15,156.29
1972-04-16,156.29
1972-04-17,166.37
1972-04-18,166.37
1972-04-19,166.37
1972-04-20,166.37
1972-04-21,166.37
1972-04-22,166.37
1972-04-23,166.37
1972-04-24,166.37
1972-04-25,166.37
1972-04-26,166.37
1972-04-27,166.37
1972-04-28,166.37
1972-04-29,166.37
1972-04-30,166.37
1972-05-01,166.37
1972-05-02,166.37
1972-05-03,173.43
1972-05-04,175.45
1972-05-05,177.97
1972-05-06,182.51
1972-05-07,182.0
1972-05-08,186.54
1972-05-09,186.54
1972-05-10,186.54
1972-05-11,187.04
1972-05-12,186.54
1972-05-13,186.54
1972-05-14,186.54
1972-05-15,189.56
1972-05-16,190.07
1972-05-17,188.05
1972-05-18,186.54
1972-05-19,186.54
1972-05-20,186.54
1972-05-21,187.04
1972-05-22,194.1
1972-05-23,194.1
1972-05-24,194.61
1972-05-25,194.61
1972-05-26,189.56
1972-05-27,186.03
1972-05-28,185.53
1972-05-29,180.99
1972-05-30,183.51
1972-05-31,184.02
1972-06-01,180.99
1972-06-02,175.45
1972-06-03,251.58
1972-06-04,248.05
1972-06-05,754.73
1972-06-06,1170.66
1972-06-07,1379.38
1972-06-08,1508.95
1972-06-09,1412.15